Weather History for Madrid, Spain

Change the Weather History Date:

Sunday, January 27, 2013

  Actual Average Record
Temperature  
Mean Temperature 42 °F -  
Max Temperature 50 °F 53 °F 69 °F (2003)
Min Temperature 33 °F 33 °F 15 °F (2005)
Degree Days  
Heating Degree Days 24    
Moisture  
Dew Point 37 °F    
Average Humidity 81    
Maximum Humidity 93    
Minimum Humidity 64    
Precipitation  
Precipitation 0.01 in 0.06 in - ()
Sea Level Pressure  
Sea Level Pressure 30.09 in    
Wind  
Wind Speed 4 mph ()    
Max Wind Speed 24 mph    
Max Gust Speed 37 mph    
Visibility 7.1 miles    
Events Rain    
Averages and records for this station are not official NWS values.
T = Trace of Precipitation, MM = Missing Value Source: Averaged Metar Reports

Daily Weather History Graph

Daily Weather History Graph

Search for Another Location

Airport:

Trip Planner

Search our weather history database for the weather conditions in past years. The results will help you decide how hot, cold, wet, or windy it might be!

Date:

Astronomy

Jan. 27, 2013 Rise Set
Actual Time 8:28 AM CET 6:26 PM CET
Civil Twilight 7:58 AM CET 6:55 PM CET
Nautical Twilight 7:26 AM CET 7:28 PM CET
Astronomical Twilight 6:53 AM CET 8:00 PM CET
Moon 7:06 PM CET (1/27) 8:12 AM CET (1/27)
Length of Visible Light 10h 56m
Length of Day
9h 58m
Full, 100% of the Moon is Illuminated
Jan 27
Full
Feb 3
Last Quarter
Feb 10
New
Feb 17
First Quarter
Feb 25
Full

Hourly Weather History & Observations

Time (CET) Temp. Windchill Dew Point Humidity Pressure Visibility Wind Dir Wind Speed Gust Speed Precip Events Conditions
12:00 AM 39.2 °F - 30.2 °F 70% 30.15 in - Calm Calm - N/A   Clear
12:30 AM 39.2 °F - 30.2 °F 70% 30.15 in - Calm Calm - N/A   Clear
1:00 AM 37 °F - 29 °F 64% 30.24 in 19 mi North 2.3 mph - -   Clear
1:00 AM 37.4 °F - 32.0 °F 81% 30.15 in - North 2.3 mph - N/A   Clear
1:30 AM 37.4 °F - 32.0 °F 81% 30.15 in - Variable 2.3 mph - N/A   Clear
2:00 AM 35.6 °F - 30.2 °F 81% 30.15 in - North 1.2 mph - N/A   Clear
2:30 AM 35.6 °F 32.8 °F 30.2 °F 81% 30.15 in - North 3.5 mph - N/A   Clear
3:00 AM 35.6 °F - 30.2 °F 81% 30.15 in - North 2.3 mph - N/A   Clear
3:30 AM 35.6 °F - 30.2 °F 81% 30.12 in - Variable 1.2 mph - N/A   Clear
4:00 AM 35.6 °F - 30.2 °F 81% 30.12 in - Calm Calm - N/A   Clear
4:30 AM 33.8 °F - 30.2 °F 87% 30.12 in - Variable 2.3 mph - N/A   Clear
5:00 AM 35.6 °F - 32.0 °F 87% 30.12 in 6.2 mi North 2.3 mph - N/A   Scattered Clouds
5:30 AM 35.6 °F - 32.0 °F 87% 30.09 in 6.2 mi North 2.3 mph - N/A   Scattered Clouds
5:41 AM 35.6 °F 32.8 °F 32.0 °F 87% 30.09 in 6.2 mi NNW 3.5 mph - N/A   Mostly Cloudy
6:00 AM 35.6 °F 30.7 °F 33.8 °F 93% 30.12 in 6.2 mi NW 5.8 mph - N/A   Mostly Cloudy
6:30 AM 35.6 °F 32.8 °F 32.0 °F 87% 30.09 in 6.2 mi North 3.5 mph - N/A   Mostly Cloudy
7:00 AM 36 °F - 29 °F 68% 30.19 in 19 mi Calm Calm - -   Mostly Cloudy
7:00 AM 37.4 °F - 32.0 °F 81% 30.09 in 6.2 mi Variable 1.2 mph - N/A   Mostly Cloudy
7:30 AM 37.4 °F - 32.0 °F 81% 30.12 in 6.2 mi Variable 1.2 mph - N/A   Mostly Cloudy
8:00 AM 37.4 °F - 32.0 °F 81% 30.09 in 6.2 mi Variable 2.3 mph - N/A   Mostly Cloudy
8:30 AM 37.4 °F - 32.0 °F 81% 30.09 in 6.2 mi Calm Calm - N/A   Mostly Cloudy
9:00 AM 39.2 °F - 33.8 °F 81% 30.12 in 6.2 mi Variable 2.3 mph - N/A   Mostly Cloudy
9:30 AM 39.2 °F - 33.8 °F 81% 30.12 in 6.2 mi Calm Calm - N/A   Mostly Cloudy
10:00 AM 41.0 °F - 35.6 °F 81% 30.12 in 6.2 mi Variable 1.2 mph - N/A   Mostly Cloudy
10:30 AM 41.0 °F - 35.6 °F 81% 30.12 in 6.2 mi Calm Calm - N/A   Mostly Cloudy
11:00 AM 41.0 °F - 37.4 °F 87% 30.12 in 6.2 mi Variable 2.3 mph - N/A   Mostly Cloudy
11:30 AM 42.8 °F 41.1 °F 37.4 °F 81% 30.12 in 6.2 mi North 3.5 mph - N/A   Mostly Cloudy
12:00 PM 42.8 °F 41.1 °F 41.0 °F 93% 30.12 in 6.2 mi North 3.5 mph - N/A   Mostly Cloudy
12:30 PM 44.6 °F 43.1 °F 39.2 °F 81% 30.12 in 6.2 mi North 3.5 mph - N/A   Mostly Cloudy
1:00 PM 44 °F - 39 °F 76% 30.14 in 7 mi North 3.5 mph - -   Overcast
1:00 PM 44.6 °F 43.1 °F 41.0 °F 87% 30.09 in 6.2 mi North 3.5 mph - N/A   Mostly Cloudy
1:30 PM 48.2 °F - 42.8 °F 82% 30.09 in 6.2 mi WSW 5.8 mph 26.5 mph N/A   Mostly Cloudy
2:00 PM 50.0 °F - 42.8 °F 76% 30.06 in 6.2 mi SW 11.5 mph 23.0 mph N/A   Mostly Cloudy
2:30 PM 50.0 °F - 41.0 °F 71% 30.06 in 6.2 mi SW 10.4 mph - N/A   Scattered Clouds
3:00 PM 50.0 °F - 41.0 °F 71% 30.06 in 6.2 mi SW 12.7 mph - N/A   Scattered Clouds
3:30 PM 50.0 °F - 41.0 °F 71% 30.04 in 6.2 mi SW 12.7 mph - N/A   Scattered Clouds
4:00 PM 50.0 °F - 42.8 °F 76% 30.04 in 6.2 mi SSW 11.5 mph 27.6 mph N/A   Mostly Cloudy
4:30 PM 50.0 °F - 42.8 °F 76% 30.04 in 6.2 mi SSW 9.2 mph - N/A   Mostly Cloudy
5:00 PM 48.2 °F - 44.6 °F 87% 30.04 in 6.2 mi SSW 8.1 mph 19.6 mph N/A   Light Drizzle
5:30 PM 48.2 °F - 44.6 °F 87% 30.01 in 6.2 mi SW 15.0 mph 31.1 mph N/A   Light Drizzle
6:00 PM 48.2 °F - 44.6 °F 87% 30.01 in 5.0 mi SW 15.0 mph - N/A Rain Light Rain
6:30 PM 48.2 °F - 46.4 °F 93% 30.01 in 6.2 mi SW 13.8 mph - N/A   Drizzle
7:00 PM 47 °F - 43 °F 82% 30.02 in 19 mi SSW 11.5 mph - - Rain Light Rain
7:00 PM 48.2 °F - 46.4 °F 93% 29.98 in 6.2 mi SSW 10.4 mph - N/A   Mostly Cloudy
7:30 PM 48.2 °F - 46.4 °F 93% 29.98 in 6.2 mi SSW 11.5 mph - N/A   Mostly Cloudy
8:00 PM 48.2 °F - 46.4 °F 93% 30.01 in 6.2 mi SW 18.4 mph - N/A   Mostly Cloudy
8:30 PM 48.2 °F - 46.4 °F 93% 30.01 in 6.2 mi SW 15.0 mph - N/A   Light Drizzle
9:00 PM 48.2 °F - 46.4 °F 93% 30.01 in 6.2 mi SW 15.0 mph - N/A   Mostly Cloudy
9:30 PM 48.2 °F - 46.4 °F 93% 30.01 in 6.2 mi WSW 17.3 mph 29.9 mph N/A   Mostly Cloudy
10:00 PM 50.0 °F - 39.2 °F 66% 30.04 in 6.2 mi West 19.6 mph 33.4 mph N/A   Scattered Clouds
10:30 PM 48.2 °F - 37.4 °F 66% 30.04 in 6.2 mi West 23.0 mph 36.8 mph N/A   Partly Cloudy
11:00 PM 46.4 °F 38.1 °F 35.6 °F 66% 30.06 in 6.2 mi West 24.2 mph 35.7 mph N/A   Partly Cloudy
11:30 PM 44.6 °F 38.1 °F 35.6 °F 71% 30.06 in 6.2 mi West 13.8 mph - N/A   Partly Cloudy